Blair, NE

6:38 PM CDT on April 21, 2018 (GMT -0500)
Blair Municipal

Weather History for KBTA - November, 2011

Change the Weather History Date:

Thursday, November 3, 2011

  Actual Average (KOMA) Record (KOMA)
Temperature  
Mean Temperature 40 °F -  
Max Temperature 48 °F 52 °F 79 °F (2008)
Min Temperature 32 °F 33 °F 6 °F (1991)
Degree Days  
Heating Degree Days 25    
Moisture  
Dew Point 28 °F    
Average Humidity 66    
Maximum Humidity 81    
Minimum Humidity 43    
Precipitation  
Precipitation 0.00 in - - ()
Sea Level Pressure  
Sea Level Pressure 30.27 in    
Wind  
Wind Speed 13 mph (NNW)    
Max Wind Speed 21 mph    
Max Gust Speed 28 mph    
Visibility 10 miles    
Events      
Averages and records for this station are not official NWS values.
T = Trace of Precipitation, MM = Missing Value Source: NWS Daily Summary

Daily Weather History Graph

Daily Weather History Graph

Search for Another Location

Airport or City:

Astronomy

Nov. 03, 2011 Rise Set
Actual Time 7:58 AM CDT 6:17 PM CDT
Civil Twilight 7:29 AM CDT 6:46 PM CDT
Nautical Twilight 6:56 AM CDT 7:18 PM CDT
Astronomical Twilight 6:24 AM CDT 7:51 PM CDT
Moon 2:45 PM CDT (11/3) 1:06 AM CDT (11/3)
Length of Visible Light 11h 16m
Length of Day
10h 19m
First Quarter, 60% of the Moon is Illuminated
Nov 3
First Quarter
Nov 10
Full
Nov 18
Last Quarter
Nov 25
New
Dec 2
First Quarter

Hourly Weather History & Observations

Time (CDT) Temp. Windchill Dew Point Humidity Pressure Visibility Wind Dir Wind Speed Gust Speed Precip Events Conditions
12:15 AM 39.2 °F 29.3 °F 30.2 °F 70% 30.22 in 10.0 mi North 20.7 mph 25.3 mph N/A   Overcast
12:35 AM 39.2 °F 30.5 °F 30.2 °F 70% 30.23 in 10.0 mi North 16.1 mph - N/A   Scattered Clouds
12:55 AM 39.2 °F 29.8 °F 30.2 °F 70% 30.23 in 10.0 mi NNW 18.4 mph 27.6 mph N/A   Mostly Cloudy
1:15 AM 39.2 °F 29.3 °F 30.2 °F 70% 30.22 in 10.0 mi NNW 20.7 mph 25.3 mph N/A   Scattered Clouds
1:35 AM 39.2 °F 29.6 °F 28.4 °F 65% 30.23 in 10.0 mi NNW 19.6 mph 25.3 mph N/A   Scattered Clouds
1:55 AM 37.4 °F 26.9 °F 28.4 °F 70% 30.23 in 10.0 mi NNW 20.7 mph 25.3 mph N/A   Scattered Clouds
2:15 AM 37.4 °F 27.5 °F 28.4 °F 70% 30.23 in 10.0 mi NNW 18.4 mph 25.3 mph N/A   Clear
2:35 AM 37.4 °F 27.8 °F 28.4 °F 70% 30.23 in 10.0 mi NNW 17.3 mph 23.0 mph N/A   Clear
2:55 AM 35.6 °F 27.1 °F 28.4 °F 75% 30.23 in 10.0 mi NNW 12.7 mph - N/A   Clear
3:15 AM 35.6 °F 26.2 °F 28.4 °F 75% 30.23 in 10.0 mi NNW 15.0 mph 21.9 mph N/A   Clear
3:35 AM 35.6 °F 26.2 °F 28.4 °F 75% 30.23 in 10.0 mi North 15.0 mph 20.7 mph N/A   Clear
3:55 AM 35.6 °F 26.2 °F 28.4 °F 75% 30.23 in 10.0 mi North 15.0 mph 19.6 mph N/A   Clear
4:35 AM 33.8 °F 24.3 °F 28.4 °F 81% 30.23 in 10.0 mi NNW 13.8 mph 19.6 mph N/A   Clear
4:55 AM 33.8 °F 23.9 °F 28.4 °F 81% 30.24 in 10.0 mi North 15.0 mph 19.6 mph N/A   Clear
5:15 AM 33.8 °F 23.9 °F 28.4 °F 81% 30.25 in 10.0 mi NNW 15.0 mph - N/A   Clear
5:35 AM 33.8 °F 24.8 °F 26.6 °F 75% 30.26 in 10.0 mi NNW 12.7 mph - N/A   Clear
5:55 AM 32.0 °F 22.1 °F 26.6 °F 80% 30.26 in 10.0 mi NNW 13.8 mph - N/A   Clear
6:15 AM 32.0 °F 21.6 °F 26.6 °F 80% 30.27 in 10.0 mi NNW 15.0 mph - N/A   Clear
6:35 AM 32.0 °F 22.5 °F 26.6 °F 80% 30.28 in 10.0 mi NNW 12.7 mph - N/A   Clear
6:55 AM 32.0 °F 22.5 °F 26.6 °F 80% 30.28 in 10.0 mi North 12.7 mph 20.7 mph N/A   Clear
7:15 AM 32.0 °F 22.5 °F 26.6 °F 80% 30.28 in 10.0 mi North 12.7 mph - N/A   Clear
7:35 AM 32.0 °F 23.6 °F 26.6 °F 80% 30.29 in 10.0 mi NNW 10.4 mph - N/A   Clear
7:55 AM 32.0 °F 22.5 °F 26.6 °F 80% 30.30 in 10.0 mi NNW 12.7 mph - N/A   Clear
8:15 AM 32.0 °F 24.2 °F 26.6 °F 80% 30.31 in 10.0 mi North 9.2 mph - N/A   Clear
8:35 AM 32.0 °F 24.8 °F 26.6 °F 80% 30.32 in 10.0 mi North 8.1 mph - N/A   Clear
8:55 AM 32.0 °F 23.6 °F 26.6 °F 80% 30.32 in 10.0 mi North 10.4 mph - N/A   Clear
9:15 AM 32.0 °F 24.8 °F 26.6 °F 80% 30.32 in 10.0 mi North 8.1 mph - N/A   Clear
9:35 AM 33.8 °F 26.4 °F 26.6 °F 75% 30.32 in 10.0 mi North 9.2 mph - N/A   Clear
9:55 AM 35.6 °F 28.0 °F 26.6 °F 70% 30.32 in 10.0 mi NNW 10.4 mph - N/A   Clear
10:15 AM 35.6 °F 29.9 °F 26.6 °F 70% 30.32 in 10.0 mi NNW 6.9 mph - N/A   Clear
10:35 AM 37.4 °F 30.8 °F 28.4 °F 70% 30.32 in 10.0 mi North 9.2 mph - N/A   Clear
10:55 AM 39.2 °F 32.5 °F 28.4 °F 65% 30.32 in 10.0 mi North 10.4 mph - N/A   Clear
11:15 AM 41.0 °F 34.7 °F 28.4 °F 61% 30.32 in 10.0 mi NNW 10.4 mph - N/A   Clear
11:35 AM 42.8 °F 37.0 °F 28.4 °F 57% 30.32 in 10.0 mi North 10.4 mph - N/A   Clear
11:55 AM 42.8 °F 36.2 °F 28.4 °F 57% 30.30 in 10.0 mi North 12.7 mph - N/A   Clear
12:15 PM 42.8 °F 37.5 °F 28.4 °F 57% 30.30 in 10.0 mi NNW 9.2 mph - N/A   Clear
12:35 PM 44.6 °F 38.4 °F 28.4 °F 53% 30.29 in 10.0 mi North 12.7 mph 17.3 mph N/A   Clear
12:55 PM 44.6 °F 39.7 °F 28.4 °F 53% 30.28 in 10.0 mi North 9.2 mph - N/A   Clear
1:15 PM 46.4 °F 41.1 °F 28.4 °F 50% 30.28 in 10.0 mi North 11.5 mph - N/A   Clear
1:35 PM 44.6 °F 41.4 °F 28.4 °F 53% 30.28 in 10.0 mi NNW 5.8 mph - N/A   Clear
2:15 PM 46.4 °F 41.9 °F 28.4 °F 50% 30.27 in 10.0 mi NNW 9.2 mph - N/A   Clear
2:35 PM 46.4 °F 42.9 °F 28.4 °F 50% 30.27 in 10.0 mi NNW 6.9 mph - N/A   Clear
2:55 PM 46.4 °F 42.9 °F 28.4 °F 50% 30.26 in 10.0 mi North 6.9 mph - N/A   Clear
3:15 PM 48.2 °F - 28.4 °F 46% 30.26 in 10.0 mi North 8.1 mph - N/A   Clear
3:35 PM 48.2 °F - 28.4 °F 46% 30.25 in 10.0 mi North 8.1 mph - N/A   Clear
3:55 PM 48.2 °F - 26.6 °F 43% 30.25 in 10.0 mi North 3.5 mph - N/A   Clear
4:15 PM 48.2 °F - 28.4 °F 46% 30.25 in 10.0 mi North 5.8 mph - N/A   Clear
5:15 PM 46.4 °F 45.2 °F 28.4 °F 50% 30.25 in 10.0 mi NNW 3.5 mph - N/A   Clear
5:35 PM 46.4 °F - 28.4 °F 50% 30.25 in 10.0 mi Calm Calm - N/A   Clear
6:35 PM 44.6 °F - 28.4 °F 53% 30.25 in 10.0 mi Calm Calm - N/A   Clear
6:55 PM 42.8 °F - 30.2 °F 61% 30.25 in 10.0 mi Calm Calm - N/A   Clear
7:15 PM 42.8 °F - 28.4 °F 57% 30.26 in 10.0 mi Calm Calm - N/A   Clear
7:35 PM 42.8 °F - 28.4 °F 57% 30.25 in 10.0 mi Calm Calm - N/A   Clear
7:55 PM 42.8 °F - 28.4 °F 57% 30.25 in 10.0 mi Calm Calm - N/A   Clear
8:15 PM 42.8 °F - 26.6 °F 53% 30.25 in 10.0 mi Calm Calm - N/A   Clear
8:35 PM 39.2 °F - 28.4 °F 65% 30.25 in 10.0 mi Calm Calm - N/A   Clear
8:55 PM 41.0 °F - 28.4 °F 61% 30.25 in 10.0 mi Calm Calm - N/A   Clear
9:15 PM 39.2 °F - 28.4 °F 65% 30.26 in 10.0 mi Calm Calm - N/A   Clear
9:35 PM 41.0 °F - 28.4 °F 61% 30.26 in 10.0 mi Calm Calm - N/A   Clear
9:55 PM 37.4 °F - 28.4 °F 70% 30.26 in 10.0 mi Calm Calm - N/A   Clear
10:15 PM 37.4 °F - 28.4 °F 70% 30.27 in 10.0 mi Calm Calm - N/A   Clear
10:35 PM 41.0 °F - 28.4 °F 61% 30.27 in 10.0 mi Calm Calm - N/A   Clear
10:55 PM 39.2 °F - 26.6 °F 61% 30.27 in 10.0 mi Calm Calm - N/A   Clear
11:35 PM 39.2 °F - 28.4 °F 65% 30.26 in 10.0 mi Calm Calm - N/A   Clear
11:55 PM 37.4 °F 34.9 °F 28.4 °F 70% 30.25 in 10.0 mi East 3.5 mph - N/A   Clear